Jaipur, India

2:28 PM IST on March 25, 2017 (GMT +0530)
Jaipur

Weather History for VIJP - March, 2012

Change the Weather History Date:

Saturday, March 3, 2012

  Actual Average Record
Temperature  
Mean Temperature 73 °F -  
Max Temperature 88 °F - - ()
Min Temperature 58 °F - - ()
Cooling Degree Days 8    
Growing Degree Days 23 (Base 50)    
Moisture  
Dew Point 46 °F    
Average Humidity 39    
Maximum Humidity 59    
Minimum Humidity 10    
Precipitation  
Precipitation 0.00 in - - ()
Sea Level Pressure  
Sea Level Pressure 29.77 in    
Wind  
Wind Speed 2 mph ()    
Max Wind Speed 13 mph    
Max Gust Speed -    
Visibility 1.9 miles    
Events      
T = Trace of Precipitation, MM = Missing Value Source: Averaged Metar Reports

Daily Weather History Graph

Daily Weather History Graph

Search for Another Location

Airport or City:

Trip Planner

Search our weather history database for the weather conditions in past years. The results will help you decide how hot, cold, wet, or windy it might be!

Date:

Astronomy

Mar. 03, 2012 Rise Set
Actual Time 6:48 AM IST 6:29 PM IST
Civil Twilight 6:25 AM IST 6:52 PM IST
Nautical Twilight 5:58 AM IST 7:19 PM IST
Astronomical Twilight 5:31 AM IST 7:46 PM IST
Moon 1:34 PM IST (3/3) 2:41 AM IST (3/3)
Length of Visible Light 12h 27m
Length of Day
11h 40m
Waxing Gibbous, 71% of the Moon is Illuminated
Mar 3
Waxing Gibbous
Mar 8
Full
Mar 15
Last Quarter
Mar 22
New
Mar 31
First Quarter

Hourly Weather History & Observations

Time (IST) Temp. Dew Point Humidity Pressure Visibility Wind Dir Wind Speed Gust Speed Precip Events Conditions
12:00 AM 66.2 °F 42.8 °F 43% 29.80 in 1.9 mi Calm Calm - N/A   Haze
1:00 AM 64.4 °F 42.8 °F 45% 29.80 in 1.9 mi Calm Calm - N/A   Haze
2:00 AM 62.6 °F 42.8 °F 48% 29.77 in 1.9 mi Calm Calm - N/A   Haze
2:30 AM 61 °F 44 °F 43% 29.75 in 1 mi Calm Calm - -   Haze
2:30 AM 60.8 °F 42.8 °F 52% 29.77 in 1.9 mi Calm Calm - N/A   Haze
3:00 AM 60.8 °F 44.6 °F 55% 29.77 in 1.9 mi Calm Calm - N/A   Haze
4:00 AM 59.0 °F 44.6 °F 59% 29.74 in 1.9 mi Calm Calm - N/A   Haze
5:30 AM 61 °F 47 °F 49% 29.75 in 1 mi Calm Calm - -   Haze
5:30 AM 60.8 °F 46.4 °F 59% 29.77 in 1.9 mi Calm Calm - N/A   Haze
6:00 AM 60.8 °F 46.4 °F 59% 29.77 in 1.9 mi Calm Calm - N/A   Haze
7:00 AM 60.8 °F 46.4 °F 59% 29.80 in 1.9 mi Calm Calm - N/A   Haze
7:30 AM 60.8 °F 46.4 °F 59% 29.80 in 1.9 mi Calm Calm - N/A   Haze
8:00 AM 64.4 °F 48.2 °F 56% 29.83 in 1.9 mi Calm Calm - N/A   Haze
8:30 AM 67 °F 48 °F 39% 29.79 in 1 mi 2.3 mph - -   Smoke
8:30 AM 68.0 °F 48.2 °F 49% 29.83 in 1.2 mi Calm Calm - N/A   Smoke
9:00 AM 69.8 °F 48.2 °F 46% 29.83 in 1.2 mi Calm Calm - N/A   Smoke
11:00 AM 78.8 °F 48.2 °F 34% 29.83 in 1.9 mi SSW 5.8 mph - N/A   Haze
11:30 AM 81 °F 46 °F 19% 29.79 in 2 mi West 9.2 mph - -   Haze
12:00 PM 80.6 °F 46.4 °F 30% 29.83 in 1.9 mi West 11.5 mph - N/A   Haze
1:00 PM 84.2 °F 50.0 °F 30% 29.80 in 1.9 mi WNW 10.4 mph - N/A   Haze
2:00 PM 86.0 °F 46.4 °F 25% 29.77 in 2.5 mi West 12.7 mph - N/A   Haze
2:30 PM 86 °F 43 °F 13% 29.70 in 2 mi WNW 6.9 mph - -   Haze
4:00 PM 87.8 °F 46.4 °F 24% 29.71 in 2.5 mi West 9.2 mph - N/A   Haze
5:00 PM 87.8 °F 46.4 °F 24% 29.71 in 2.5 mi West 9.2 mph - N/A   Haze
5:30 PM 86 °F 37 °F 10% 29.64 in 2 mi West 6.9 mph - -   Haze
6:00 PM 84.2 °F 46.4 °F 27% 29.71 in 2.5 mi SW 5.8 mph - N/A   Haze
7:00 PM 82.4 °F 46.4 °F 28% 29.74 in 2.2 mi Variable 2.3 mph - N/A   Haze
8:00 PM 78.8 °F 46.4 °F 32% 29.74 in 2.2 mi SW 3.5 mph - N/A   Haze
8:30 PM 78.8 °F 46.4 °F 32% 29.77 in 2.2 mi SSW 5.8 mph - N/A   Haze
9:00 PM 78.8 °F 46.4 °F 32% 29.77 in 2.2 mi SW 4.6 mph - N/A   Haze
9:30 PM 77.0 °F 48.2 °F 36% 29.77 in 2.2 mi SW 5.8 mph - N/A   Haze
10:00 PM 75.2 °F 48.2 °F 38% 29.80 in 2.2 mi WSW 4.6 mph - N/A   Haze
10:30 PM 75.2 °F 48.2 °F 38% 29.80 in 2.2 mi WSW 5.8 mph - N/A   Haze
11:00 PM 73.4 °F 48.2 °F 41% 29.80 in 2.2 mi Calm Calm - N/A   Haze
11:30 PM 74 °F 47 °F 28% 29.72 in 1 mi SW 4.6 mph - -   Haze